ATLAS 5 CENTAUR DEB, 46601

Orbit data source: Space-Track

ATLAS 5 CENTAUR DEB, 46601 is space debris in HEO originally from a launch on Wed, 17 Oct 2018 UTC launched from the Air Force Eastern Test Range (AFETR). Debris objects in space refer to the collection of defunct objects orbiting the Earth. Examples of debris include non-operational satellites, rocket bodies, and fragments generated from explosions, collisions, or faulty payload assembly.

Loading next visibility...
Identifier
46601, 2018-079BZ
Orbit
HEO
Country
Flag of USUS
Related business
Flag of USUnited Launch Alliance/Lockheed Martin (US)
Manufacturer
ULA Decatur
Mission
Spacecraft
Bus & Motor
Unknown
Mass
Unknown
Launch date (UTC)
2018-10-17 (7 years ago)
Launch vehicle
Unknown
Launch site
Air Force Eastern Test Range (AFETR)
Object type
Payload
Rocket body
Debris
Shape & HBR
Unknown shape, 1.1 m
Radar Cross Section
RCS unknown

Expand to show TLE details & history
Last TLE update: 14 hours ago

TLE from 14 hours ago
0 ATLAS 5 CENTAUR DEB
1 46601U 18079BZ  25301.50687705 -.00000086  00000-0  00000-0 0  9996
2 46601  12.7288  56.4203 4468053 278.1372  35.1864  1.85741151 37197
Epoch: 2025-10-28T12:09Z
TLE epoch observation values (Epoch: 2025-10-28T12:09:54.177Z)
Latitude
-0.00001°
Longitude
-163.20643°
Altitude
14,655.57 km
Speed
4.862 km/s
True Right ascension
03h 45m 27s
True Declination
0° 00' 00"
Sunlit
Object was in daylight at epoch
Visualization orbit readout
Latitude
Unknown
Longitude
Unknown
Altitude
Unknown
Speed
Unknown
Apparent Right ascension
Unknown
Apparent Declination
Unknown
Sunlit
N/A
Visualization observer readout
Local Sidereal Time
21:57:23
Azimuth
Unknown
Elevation
Unknown
Doppler factor
Unknown
Orbital elements
Apogee altitude
34,070.616 km
Perigee altitude
9,087.687 km
Semi-major axis
27,957.288 km
Eccentricity
0.44681
Inclination
12.7288°
RAAN
56.4203°
Arg. of periapsis
278.1372°
True anomaly
82.03196°
Mean anomaly
35.1864°
Eccentric anomaly
56.54502°
Mean motion
0.4643 °/min
Orbital period
775.36 mins
BSTAR
0
Loading maneuver chart data...
Computing Atmospheric mass density...

Documentation

Showing up to 5 results
|